Location: Newark
(46.1333°N, 13.0333°E)
Time: 00:37:10
(UTC+00:00)

ISS - Visible Passes

Search period start: 18 January 2021 00:00
Search period end: 28 January 2021 00:00
Orbit: 418 x 419 km, 51.6° (Epoch: 18 January)

Date Brightness Start Highest point End Pass type
(mag) Time Alt. Az. Time Alt. Az. Time Alt. Az.
18 Jan -2.0 17:41:04 10° SSW 17:43:01 21° SSE 17:43:01 21° SSE visible
19 Jan -1.6 16:54:18 10° SSE 16:56:11 14° SE 16:57:32 12° ESE visible
19 Jan -1.4 18:29:10 10° WSW 18:30:30 22° WSW 18:30:30 22° WSW visible
20 Jan -3.6 17:41:30 10° SW 17:44:48 54° SSE 17:44:56 54° SE visible
21 Jan -2.8 16:54:02 10° SSW 16:57:07 34° SE 16:59:18 16° E visible
21 Jan -1.5 18:30:33 10° W 18:32:16 26° W 18:32:16 26° W visible
22 Jan -3.7 17:42:39 10° WSW 17:46:00 68° NNW 17:46:33 55° NNE visible
23 Jan -3.8 16:54:51 10° WSW 16:58:12 83° SSE 17:00:48 16° ENE visible
23 Jan -1.4 18:32:08 10° WNW 18:33:44 22° WNW 18:33:44 22° WNW visible
24 Jan -2.9 17:44:07 10° W 17:47:20 40° NNW 17:47:56 36° NNE visible
25 Jan -3.2 16:56:08 10° W 16:59:26 50° NNW 17:02:06 15° NE visible
25 Jan -1.3 18:33:38 10° WNW 18:35:02 20° NW 18:35:02 20° NW visible
26 Jan -2.6 17:45:40 10° WNW 17:48:43 31° N 17:49:11 30° NNE visible
27 Jan -2.7 16:57:37 10° WNW 17:00:45 34° N 17:03:18 14° NE visible
27 Jan -1.3 18:34:56 10° WNW 18:36:15 20° NW 18:36:15 20° NW visible
